Weather History for CYXH - April, 2014

Change the Weather History Date:

Thursday, April 17, 2014

  Actual Average Record
Temperature  
Mean Temperature 46 °F -  
Max Temperature 59 °F 62 °F 71 °F (1999)
Min Temperature 33 °F 37 °F -16 °F (2015)
Degree Days  
Heating Degree Days 19    
Moisture  
Dew Point 33 °F    
Average Humidity 78    
Maximum Humidity 93    
Minimum Humidity 39    
Precipitation  
Precipitation 0.00 in 0.05 in - ()
Sea Level Pressure  
Sea Level Pressure 29.93 in    
Wind  
Wind Speed 11 mph ()    
Max Wind Speed 21 mph    
Max Gust Speed 26 mph    
Visibility 8.0 miles    
Events Rain    
Averages and records for this station are not official NWS values.
T = Trace of Precipitation, MM = Missing Value Source: Averaged Metar Reports

Daily Weather History Graph

Daily Weather History Graph

Search for Another Location

Airport or City:

Trip Planner

Search our weather history database for the weather conditions in past years. The results will help you decide how hot, cold, wet, or windy it might be!

Date:

Astronomy

Apr. 17, 2014 Rise Set
Actual Time 6:25 AM MDT 8:20 PM MDT
Civil Twilight 5:51 AM MDT 8:54 PM MDT
Nautical Twilight 5:08 AM MDT 9:37 PM MDT
Astronomical Twilight 4:21 AM MDT 10:25 PM MDT
Moon 11:22 PM MDT (4/17) 7:49 AM MDT (4/17)
Length of Visible Light 15h 03m
Length of Day
13h 54m
Waning Gibbous, 93% of the Moon is Illuminated
Apr 17
Waning Gibbous
Apr 22
Last Quarter
Apr 29
New
May 6
First Quarter
May 14
Full

Hourly Weather History & Observations

Time (MDT) Temp. Windchill Dew Point Humidity Pressure Visibility Wind Dir Wind Speed Gust Speed Precip Events Conditions
12:00 AM 39.2 °F 33.6 °F 28.4 °F 65% 30.05 in 9.0 mi SSE 8.1 mph - N/A   Overcast
12:10 AM 37.4 °F 26.9 °F 30.2 °F 75% 30.05 in 9.0 mi South 20.7 mph - N/A Rain Light Rain
12:14 AM 35.6 °F 25.2 °F 32.0 °F 87% 30.05 in 9.0 mi SSE 18.4 mph 26.5 mph N/A Rain Light Rain
12:15 AM 35.6 °F 25.5 °F 32.0 °F 87% 30.05 in 9.0 mi SSE 17.3 mph 26.5 mph N/A Rain Light Freezing Rain
12:32 AM 35.6 °F 26.2 °F 32.0 °F 87% 30.04 in 9.0 mi SE 15.0 mph - N/A Rain Light Freezing Rain
12:33 AM 35.6 °F 26.2 °F 30.2 °F 81% 30.04 in 9.0 mi SE 15.0 mph - N/A Rain Light Rain
12:43 AM 35.6 °F 25.9 °F 30.2 °F 81% 30.03 in 9.0 mi SE 16.1 mph 21.9 mph N/A Rain Light Rain
12:50 AM 35.6 °F 24.5 °F 30.2 °F 81% 30.03 in 9.0 mi SE 20.7 mph - N/A   Overcast
12:57 AM 35.6 °F 25.9 °F 30.2 °F 81% 30.03 in 9.0 mi SSE 16.1 mph 25.3 mph N/A   Overcast
1:00 AM 35.6 °F 26.2 °F 30.2 °F 81% 30.02 in 9.0 mi SSE 15.0 mph 21.9 mph N/A   Overcast
1:16 AM 35.6 °F 26.6 °F 30.2 °F 81% 30.02 in 8.0 mi SSE 13.8 mph 21.9 mph N/A   Overcast
1:20 AM 33.8 °F 23.5 °F 32.0 °F 93% 30.02 in 7.0 mi SE 16.1 mph - N/A   Overcast
1:25 AM 33.8 °F 24.3 °F 32.0 °F 93% 30.02 in 8.0 mi SE 13.8 mph 21.9 mph N/A Rain Light Rain
1:29 AM 33.8 °F 24.3 °F 32.0 °F 93% 30.02 in 7.0 mi SE 13.8 mph 21.9 mph N/A Rain Rain
1:30 AM 33.8 °F 24.3 °F 32.0 °F 93% 30.02 in 7.0 mi SE 13.8 mph 21.9 mph N/A Rain Rain
1:31 AM 33.8 °F 23.9 °F 32.0 °F 93% 30.02 in 5.0 mi SE 15.0 mph 20.7 mph N/A   Overcast
1:32 AM 33.8 °F 23.9 °F 32.0 °F 93% 30.02 in 5.0 mi SE 15.0 mph 20.7 mph N/A Rain Light Freezing Rain
1:38 AM 33.8 °F 24.3 °F 32.0 °F 93% 30.01 in 3.0 mi SE 13.8 mph 20.7 mph N/A   Overcast
1:41 AM 33.8 °F 24.8 °F 32.0 °F 93% 30.01 in 2.5 mi ESE 12.7 mph 19.6 mph N/A   Overcast
1:43 AM 33.8 °F 25.8 °F 32.0 °F 93% 30.01 in 2.0 mi ESE 10.4 mph 19.6 mph N/A   Overcast
1:51 AM 33.8 °F 28.6 °F 32.0 °F 93% 30.01 in 2.2 mi SE 5.8 mph 18.4 mph N/A   Overcast
1:53 AM 33.8 °F 28.6 °F 32.0 °F 93% 30.01 in 3.0 mi ESE 5.8 mph - N/A   Overcast
1:55 AM 33.8 °F 29.6 °F 32.0 °F 93% 30.01 in 4.0 mi East 4.6 mph - N/A Rain Light Freezing Rain
1:56 AM 33.8 °F 29.6 °F 32.0 °F 93% 30.01 in 6.0 mi East 4.6 mph - N/A Rain Light Freezing Rain
2:00 AM 33.8 °F 29.6 °F 32.0 °F 93% 30.01 in 9.0 mi East 4.6 mph - N/A Rain Light Freezing Rain
2:02 AM 33.8 °F 28.6 °F 32.0 °F 93% 30.01 in 9.0 mi East 5.8 mph - N/A Rain Light Freezing Rain
2:03 AM 33.8 °F 28.6 °F 32.0 °F 93% 30.01 in 9.0 mi ENE 5.8 mph - N/A Rain Light Rain
2:05 AM 33.8 °F 28.6 °F 32.0 °F 93% 30.01 in 9.0 mi NNE 5.8 mph - N/A   Overcast
3:00 AM 35.6 °F 28.0 °F 32.0 °F 87% 29.98 in 9.0 mi SE 10.4 mph 17.3 mph N/A   Overcast
4:00 AM 37.4 °F 33.8 °F 30.2 °F 75% 29.95 in 9.0 mi SSW 4.6 mph - N/A   Overcast
5:00 AM 35.6 °F 30.7 °F 30.2 °F 81% 29.94 in 9.0 mi Variable 5.8 mph - N/A   Overcast
6:00 AM 35.6 °F - 28.4 °F 75% 29.94 in 9.0 mi Variable 2.3 mph - N/A   Clear
7:00 AM 33.8 °F 29.6 °F 28.4 °F 81% 29.93 in 15.0 mi SSW 4.6 mph - N/A   Scattered Clouds
8:00 AM 37.4 °F 32.8 °F 30.2 °F 75% 29.91 in 15.0 mi SE 5.8 mph - N/A   Scattered Clouds
9:00 AM 37.4 °F 33.8 °F 33.8 °F 87% 29.91 in 30.0 mi North 4.6 mph - N/A   Scattered Clouds
10:00 AM 41.0 °F 37.1 °F 35.6 °F 81% 29.89 in 30.0 mi North 5.8 mph - N/A   Mostly Cloudy
11:00 AM 50.0 °F - 32.0 °F 50% 29.87 in 30.0 mi South 9.2 mph - N/A   Mostly Cloudy
12:00 PM 50.0 °F - 32.0 °F 50% 29.85 in 30.0 mi SSW 10.4 mph - N/A   Mostly Cloudy
1:00 PM 53.6 °F - 33.8 °F 47% 29.82 in 30.0 mi SSW 15.0 mph - N/A   Mostly Cloudy
2:00 PM 59.0 °F - 33.8 °F 39% 29.80 in 30.0 mi SSW 15.0 mph 24.2 mph N/A   Overcast
3:00 PM 55.4 °F - 35.6 °F 47% 29.79 in 30.0 mi SSW 19.6 mph 26.5 mph N/A   Mostly Cloudy
4:00 PM 53.6 °F - 35.6 °F 51% 29.79 in 30.0 mi South 6.9 mph - N/A   Mostly Cloudy
5:00 PM 55.4 °F - 35.6 °F 47% 29.78 in 30.0 mi West 4.6 mph - N/A   Mostly Cloudy
5:52 PM 53.6 °F - 41.0 °F 62% 29.78 in 30.0 mi South 11.5 mph - N/A Rain Light Rain Showers
6:00 PM 51.8 °F - 39.2 °F 62% 29.78 in 30.0 mi WSW 3.5 mph - N/A Rain Light Rain Showers
7:00 PM 51.8 °F - 41.0 °F 67% 29.76 in 30.0 mi East 4.6 mph - N/A   Overcast
8:00 PM 50.0 °F - 39.2 °F 66% 29.75 in 30.0 mi ENE 5.8 mph - N/A   Overcast
9:00 PM 48.2 °F - 39.2 °F 71% 29.75 in 15.0 mi ENE 8.1 mph - N/A   Overcast
10:00 PM 48.2 °F - 39.2 °F 71% 29.73 in 9.0 mi East 3.5 mph - N/A   Overcast
10:44 PM 48.2 °F - 37.4 °F 66% 29.72 in 9.0 mi ESE 3.5 mph - N/A Rain Light Rain
11:00 PM 48.2 °F - 39.2 °F 71% 29.70 in 9.0 mi ESE 3.5 mph - N/A Rain Light Rain
11:05 PM 48.2 °F - 37.4 °F 66% 29.70 in 9.0 mi SSE 3.5 mph - N/A   Overcast